Location: Newark
(52.3735°N, 16.9806°E)
Time: 15:49:31
(UTC+00:00)

LilacSat-2 - Visible Passes

Search period start: 28 November 2021 00:00
Search period end: 08 December 2021 00:00
Orbit: 511 x 532 km, 97.5° (Epoch: 28 November)

Date Brightness Start Highest point End Pass type
(mag) Time Alt. Az. Time Alt. Az. Time Alt. Az.
28 Nov ? 04:49:53 10° NNE 04:53:45 74° ESE 04:57:35 10° S visible
28 Nov ? 15:36:14 10° SSE 15:39:59 82° ENE 15:43:48 10° NNW visible
28 Nov ? 17:13:35 10° WSW 17:14:44 11° W 17:15:54 10° WNW visible
29 Nov ? 04:36:58 10° NNE 04:40:45 53° E 04:44:31 10° S visible
29 Nov ? 15:23:20 10° SSE 15:27:02 60° ENE 15:30:48 10° N visible
29 Nov ? 16:59:23 10° SW 17:01:37 15° W 17:03:51 10° NW visible
30 Nov ? 04:24:05 10° NNE 04:27:44 39° E 04:31:22 10° SSE visible
30 Nov ? 16:45:41 10° SW 16:48:30 20° W 16:51:21 10° NW visible
01 Dec ? 04:11:17 10° NNE 04:14:42 29° E 04:18:05 10° SSE visible
01 Dec ? 05:45:27 10° N 05:48:52 31° WNW 05:52:17 10° SW visible
01 Dec ? 16:32:13 10° SSW 16:35:25 26° W 16:38:41 10° NW visible
02 Dec ? 03:58:33 10° NE 04:01:38 22° E 04:04:41 10° SE visible
02 Dec ? 05:32:19 10° N 05:35:58 41° WNW 05:39:36 10° SW visible
02 Dec ? 16:18:53 10° SSW 16:22:22 35° W 16:25:54 10° NNW visible
03 Dec ? 03:45:58 10° NE 03:48:32 17° E 03:51:05 10° SE visible
03 Dec ? 05:19:15 10° N 05:23:02 55° WNW 05:26:49 10° SSW visible
03 Dec ? 16:05:41 10° S 16:09:20 48° W 16:13:03 10° NNW visible
04 Dec ? 03:33:38 10° ENE 03:35:25 13° E 03:37:11 10° ESE visible
04 Dec ? 05:06:13 10° N 05:10:05 75° WNW 05:13:56 10° SSW visible
04 Dec ? 15:52:34 10° S 15:56:19 67° WSW 16:00:08 10° NNW visible
05 Dec ? 04:53:13 10° NNE 04:57:06 80° ESE 05:00:59 10° SSW visible
05 Dec ? 15:39:33 10° SSE 15:43:19 89° ENE 15:47:10 10° NNW visible
05 Dec ? 17:17:26 10° W 17:18:07 10° W 17:18:49 10° WNW visible
06 Dec ? 04:40:17 10° NNE 04:44:07 58° E 04:47:55 10° S visible
06 Dec ? 15:26:37 10° SSE 15:30:21 65° ENE 15:34:10 10° N visible
06 Dec ? 17:02:54 10° WSW 17:04:58 14° W 17:07:03 10° NW visible
07 Dec ? 04:27:22 10° NNE 04:31:05 42° E 04:34:46 10° S visible
07 Dec ? 06:02:00 10° N 06:05:03 23° WNW 06:08:06 10° WSW visible
07 Dec ? 16:49:07 10° SW 16:51:51 19° W 16:54:36 10° NW visible
